• In Uzbekistan
  • List of Countries
  • For 7 days
  • Water Temperature
  • Satellite Maps
  • Weather Map
  • Weather Widgets
  • user-avatar
    Login

    Hourly Weather Cerquilho

    Today, 26 September, Wednesday

    Time Temperature Precipitation Wind Pressure Humidity
    00:00 +24°C° 0.1 mm 3 mps 712 mmHg 72%
    01:00 +22°C° 0.7 mm 3 mps 712 mmHg 75%
    02:00 +21°C° 0.7 mm 3 mps 712 mmHg 78%
    03:00 +21°C° 0.7 mm 3 mps 711 mmHg 81%
    04:00 +21°C° 0.8 mm 3 mps 712 mmHg 82%
    05:00 +21°C° 0.8 mm 3 mps 712 mmHg 84%
    06:00 +20°C° 0.8 mm 3 mps 712 mmHg 85%
    07:00 +22°C° 0.2 mm 3 mps 712 mmHg 79%
    08:00 +24°C° 0.2 mm 3 mps 712 mmHg 74%
    09:00 +26°C° 0.2 mm 3 mps 713 mmHg 68%
    10:00 +27°C° 0 mm 3 mps 713 mmHg 62%
    11:00 +29°C° 0 mm 3 mps 712 mmHg 57%
    12:00 +30°C° 0 mm 3 mps 712 mmHg 51%
    13:00 +31°C° 0 mm 3 mps 712 mmHg 48%
    14:00 +33°C° 0 mm 3 mps 711 mmHg 45%
    15:00 +34°C° 0 mm 3 mps 710 mmHg 42%
    16:00 +32°C° 0 mm 2 mps 710 mmHg 45%
    17:00 +31°C° 0 mm 2 mps 710 mmHg 48%
    18:00 +30°C° 0 mm 1 mps 710 mmHg 51%
    19:00 +29°C° 0.7 mm 1 mps 710 mmHg 58%
    20:00 +27°C° 0.7 mm 1 mps 711 mmHg 64%
    21:00 +26°C° 0.7 mm 1 mps 711 mmHg 71%
    22:00 +25°C° 0.7 mm 2 mps 711 mmHg 75%
    23:00 +24°C° 0.7 mm 2 mps 711 mmHg 79%

    Tomorrow, 27 September, Thursday

    Time Temperature Precipitation Wind Pressure Humidity
    00:00 +24°C° 0.7 mm 2 mps 711 mmHg 83%
    01:00 +23°C° 0 mm 2 mps 711 mmHg 83%
    02:00 +23°C° 0 mm 1 mps 710 mmHg 83%
    03:00 +23°C° 0 mm 1 mps 710 mmHg 84%
    04:00 +23°C° 0.2 mm 1 mps 710 mmHg 84%
    05:00 +23°C° 0.2 mm 1 mps 710 mmHg 85%
    06:00 +22°C° 0.2 mm 1 mps 710 mmHg 85%
    07:00 +24°C° 0.2 mm 1 mps 711 mmHg 78%
    08:00 +26°C° 0.2 mm 2 mps 711 mmHg 71%
    09:00 +27°C° 0.2 mm 2 mps 712 mmHg 64%
    10:00 +29°C° 0 mm 2 mps 712 mmHg 57%
    11:00 +31°C° 0 mm 3 mps 712 mmHg 51%
    12:00 +34°C° 0 mm 3 mps 712 mmHg 44%
    13:00 +34°C° 0 mm 3 mps 711 mmHg 43%
    14:00 +35°C° 0 mm 3 mps 711 mmHg 42%
    15:00 +35°C° 0 mm 2 mps 710 mmHg 41%
    16:00 +33°C° 0.5 mm 3 mps 710 mmHg 48%
    17:00 +30°C° 0.5 mm 3 mps 710 mmHg 55%
    18:00 +28°C° 0.5 mm 4 mps 709 mmHg 62%
    19:00 +27°C° 3.4 mm 4 mps 710 mmHg 68%
    20:00 +26°C° 3.4 mm 5 mps 711 mmHg 74%
    21:00 +23°C° 3.4 mm 6 mps 711 mmHg 80%
    22:00 +23°C° 3.1 mm 4 mps 712 mmHg 82%
    23:00 +24°C° 3.1 mm 3 mps 712 mmHg 85%

    Day after tomorrow, 28 September, Friday

    Time Temperature Precipitation Wind Pressure Humidity
    00:00 +23°C° 3.1 mm 2 mps 712 mmHg 87%
    01:00 +23°C° 0.2 mm 2 mps 712 mmHg 87%
    02:00 +23°C° 0.2 mm 2 mps 711 mmHg 88%
    03:00 +21°C° 0.2 mm 2 mps 710 mmHg 88%
    04:00 +21°C° 0.1 mm 2 mps 711 mmHg 88%
    05:00 +21°C° 0.1 mm 2 mps 711 mmHg 88%
    06:00 +21°C° 0.1 mm 2 mps 711 mmHg 88%
    07:00 +23°C° 0 mm 2 mps 712 mmHg 82%
    08:00 +25°C° 0 mm 2 mps 713 mmHg 77%
    09:00 +26°C° 0 mm 3 mps 713 mmHg 71%
    10:00 +28°C° 0.1 mm 2 mps 713 mmHg 64%
    11:00 +30°C° 0.1 mm 2 mps 713 mmHg 58%
    12:00 +32°C° 0.1 mm 1 mps 713 mmHg 51%
    13:00 +32°C° 0.2 mm 2 mps 712 mmHg 51%
    14:00 +32°C° 0.2 mm 2 mps 712 mmHg 51%
    15:00 +33°C° 0.2 mm 3 mps 711 mmHg 50%
    16:00 +30°C° 0.1 mm 4 mps 711 mmHg 58%
    17:00 +28°C° 0.1 mm 5 mps 711 mmHg 66%
    18:00 +26°C° 0.1 mm 5 mps 711 mmHg 73%
    19:00 +25°C° 0 mm 5 mps 712 mmHg 75%
    20:00 +23°C° 0 mm 5 mps 712 mmHg 77%
    21:00 +22°C° 0 mm 4 mps 713 mmHg 79%
    22:00 +22°C° 0 mm 4 mps 713 mmHg 79%
    23:00 +22°C° 0 mm 4 mps 713 mmHg 79%

    29 September, Saturday

    Time Temperature Precipitation Wind Pressure Humidity
    00:00 +22°C° 0 mm 4 mps 713 mmHg 79%
    01:00 +21°C° 0 mm 4 mps 712 mmHg 81%
    02:00 +21°C° 0 mm 3 mps 712 mmHg 82%
    03:00 +21°C° 0 mm 3 mps 711 mmHg 84%
    04:00 +21°C° 0 mm 3 mps 711 mmHg 84%
    05:00 +21°C° 0 mm 3 mps 712 mmHg 84%
    06:00 +21°C° 0 mm 4 mps 712 mmHg 84%
    07:00 +22°C° 0 mm 4 mps 713 mmHg 79%
    08:00 +25°C° 0 mm 4 mps 713 mmHg 73%
    09:00 +26°C° 0 mm 4 mps 714 mmHg 68%
    10:00 +27°C° 0 mm 4 mps 713 mmHg 63%
    11:00 +29°C° 0 mm 3 mps 713 mmHg 59%
    12:00 +30°C° 0 mm 3 mps 713 mmHg 54%
    13:00 +30°C° 0.1 mm 2 mps 712 mmHg 53%
    14:00 +30°C° 0.1 mm 2 mps 712 mmHg 53%
    15:00 +31°C° 0.1 mm 2 mps 711 mmHg 52%
    16:00 +29°C° 0 mm 3 mps 711 mmHg 57%
    17:00 +28°C° 0 mm 3 mps 711 mmHg 62%
    18:00 +27°C° 0 mm 4 mps 711 mmHg 66%
    19:00 +26°C° 0 mm 4 mps 711 mmHg 70%
    20:00 +25°C° 0 mm 5 mps 712 mmHg 74%
    21:00 +23°C° 0 mm 5 mps 712 mmHg 77%
    22:00 +22°C° 0 mm 4 mps 712 mmHg 79%
    23:00 +22°C° 0 mm 4 mps 712 mmHg 80%

    30 September, Sunday

    Time Temperature Precipitation Wind Pressure Humidity
    00:00 +22°C° 0 mm 3 mps 712 mmHg 82%
    01:00 +22°C° 0.1 mm 3 mps 712 mmHg 83%
    02:00 +21°C° 0.1 mm 2 mps 711 mmHg 83%
    03:00 +21°C° 0.1 mm 2 mps 711 mmHg 84%
    04:00 +21°C° 0.1 mm 2 mps 711 mmHg 85%
    05:00 +21°C° 0.1 mm 2 mps 712 mmHg 85%
    06:00 +21°C° 0.1 mm 2 mps 712 mmHg 85%
    07:00 +23°C° 0.1 mm 2 mps 712 mmHg 82%
    08:00 +24°C° 0.1 mm 3 mps 713 mmHg 79%
    09:00 +25°C° 0.1 mm 3 mps 713 mmHg 76%
    10:00 +26°C° 0.5 mm 4 mps 713 mmHg 71%
    11:00 +28°C° 0.5 mm 4 mps 713 mmHg 65%
    12:00 +29°C° 0.5 mm 4 mps 713 mmHg 60%
    13:00 +28°C° 2 mm 3 mps 712 mmHg 63%
    14:00 +27°C° 2 mm 2 mps 711 mmHg 67%
    15:00 +27°C° 2 mm 1 mps 711 mmHg 71%
    16:00 +26°C° 1.3 mm 1 mps 711 mmHg 75%
    17:00 +25°C° 1.3 mm 1 mps 711 mmHg 80%
    18:00 +24°C° 1.3 mm 2 mps 711 mmHg 85%
    19:00 +24°C° 0.9 mm 2 mps 712 mmHg 85%
    20:00 +23°C° 0.9 mm 2 mps 712 mmHg 86%
    21:00 +23°C° 0.9 mm 2 mps 713 mmHg 87%
    22:00 +23°C° 0 mm 2 mps 713 mmHg 87%
    23:00 +21°C° 0 mm 2 mps 712 mmHg 86%

    1 October, Monday

    Time Temperature Precipitation Wind Pressure Humidity
    00:00 +21°C° 0 mm 2 mps 712 mmHg 86%
    01:00 +21°C° 0 mm 2 mps 712 mmHg 86%
    02:00 +21°C° 0 mm 2 mps 712 mmHg 86%
    03:00 +21°C° 0 mm 1 mps 711 mmHg 86%
    04:00 +21°C° 0 mm 1 mps 712 mmHg 87%
    05:00 +21°C° 0 mm 1 mps 712 mmHg 87%
    06:00 +21°C° 0 mm 1 mps 712 mmHg 88%
    07:00 +23°C° 0 mm 2 mps 713 mmHg 82%
    08:00 +24°C° 0 mm 3 mps 713 mmHg 76%
    09:00 +26°C° 0 mm 3 mps 714 mmHg 71%
    10:00 +27°C° 0.3 mm 3 mps 713 mmHg 67%
    11:00 +28°C° 0.3 mm 4 mps 713 mmHg 64%
    12:00 +29°C° 0.3 mm 4 mps 713 mmHg 60%
    13:00 +30°C° 0.9 mm 3 mps 713 mmHg 59%
    14:00 +30°C° 0.9 mm 3 mps 713 mmHg 58%
    15:00 +30°C° 0.9 mm 3 mps 712 mmHg 56%
    16:00 +29°C° 1.2 mm 2 mps 712 mmHg 61%
    17:00 +28°C° 1.2 mm 2 mps 712 mmHg 66%
    18:00 +27°C° 1.2 mm 1 mps 713 mmHg 71%
    19:00 +26°C° 0.8 mm 2 mps 713 mmHg 74%
    20:00 +25°C° 0.8 mm 2 mps 713 mmHg 76%
    21:00 +25°C° 0.8 mm 3 mps 714 mmHg 79%
    22:00 +24°C° 0.2 mm 3 mps 713 mmHg 80%
    23:00 +24°C° 0.2 mm 2 mps 713 mmHg 82%
    Show more